Location: Mountain Grove
(34.0887°N, 86.6172°W)
Time: 23:35:09
(UTC+00:00)

Cosmos 1782 Rocket - Pass Details

Date: 14 July 2020
Orbit: 606 x 633 km, 82.5° (Epoch: 12 August)

Event Time Altitude Azimuth Distance (km) Brightness Sun altitude
Exits shadow 09:21:46 23° 205° (SSW) 1,326 4.7 -15.3°
Maximum altitude 09:24:22 59° 278° (W) 723 3.7 -14.9°
Drops below altitude 10° 09:28:45 10° 358° (N) 2,001 6.7 -14.2°
Sets 09:31:01 0° 2° (N) 2,907 7.6 -13.9°
